Powrót do katalogu

DELTA 1 DEB

AktywnyPO
NORAD 21294·DEBRIS·🇺🇸 United States

Wystrzelony Jun 12, 1975 z Vandenberg Space Force Base

Loading…

Następne Przeloty (najbliższe 24 godziny)

TLE

ŚwieżeSource: Space-Track

Epoka: Sep 14, 2026, 08:10 UTC

1 21294U 75052AF  26257.34081843  .00000093  00000-0  41113-3 0  9995
2 21294  99.8760  27.5505 0249371 349.1571  35.5573 12.94644311668147

Śledź DELTA 1 DEB w czasie rzeczywistym z AllMySat

Download on the App Store